Columbus Municipal (BAK)

 

Airport Diagram
Current Weather/Forecast (VFR Conditions)
METAR KBAK 071245Z 00000KT 10SM CLR 06/04 A3007
TAF

Airport Information

All Charts
General
Chart Name View
AIRPORT DIAGRAM
TAKEOFF MINIMUMS
ALTERNATE MINIMUMS
HOT SPOT

Approaches
Chart Name Download
ILS OR LOC RWY 23
RNAV (GPS) RWY 05
RNAV (GPS) RWY 14
RNAV (GPS) RWY 23
RNAV (GPS) RWY 32


Airport Statistics
Departures Arrivals Local
All Collected Stats since June 2016: 31 25 2
2021 Stats: 7 5 0
May Stats: 1 0 0

Inbound Traffic (Arrivals) - 0

No inbound traffic.


Outbound Traffic (Departures) - 0

No outbound traffic.


Local Traffic (Pattern) - 0

No local traffic.